User: anonymous   Login
Location: Unspecified
(0.0000°N, 0.0000°E)
Time: 11:07:24
(UTC+00:00)
Language:

JY1SAT - Orbit

View from above orbital plane
View from above orbital plane
View from above satellite
View from above satellite

Ground track
Ground track

The orbit data is extracted from the following two-line orbital elements,

1 43803U 18099AX  20217.15846538  .00000479  00000-0  48297-4 0  9991
2 43803  97.7015 287.9638 0016047  37.1402 323.0926 14.95534826 91065
Epoch (UTC): 04 August 2020 03:48:11
Eccentricity: 0.0016047
inclination: 97.7015°
perigee height: 569 km
apogee height: 592 km
right ascension of ascending node: 287.9638°
argument of perigee: 37.1402°
revolutions per day: 14.95534826
mean anomaly at epoch: 323.0926°
orbit number at epoch: 9106

The dashed part of the orbit path shows where the satellite is in the earth's shadow,  

DLR